Location: ????????
(48.4751°N, 37.6926°E)
Time: 08:02:35
(UTC+00:00)

Daily predictions for brighter satellites

Satellite Brightness Start Highest point End
(mag) Time Altitude Azimuth Time Altitude Azimuth Time Altitude Azimuth
Nadezhda 4 Rocket 4.2 14:02:55 10° N 14:09:05 52° ENE 14:15:15 10° SSE
Cosmos-2242 4.3 14:05:04 10° SSW 14:09:09 42° WNW 14:13:14 10° N
Cosmos 2082 Rocket 4.0 14:09:21 10° ESE 14:11:12 12° E 14:13:02 10° ENE
SJ-7 4.5 14:07:08 10° SSE 14:11:18 78° ENE 14:15:33 10° N
SMAP 3.4 14:09:41 10° SE 14:14:03 42° ENE 14:18:27 10° N
USA 267 3.4 14:08:58 10° ENE 14:15:32 75° SE 14:22:04 10° SW
ATLAS CENTAUR R/B 2.7 14:13:04 10° WSW 14:16:58 36° NW 14:21:11 10° NNE
SJ 16-02 2.3 14:14:41 10° NNW 14:18:59 53° WSW 14:23:14 10° S
Cosmos 44 3.2 14:14:49 10° NW 14:19:41 88° SW 14:24:13 10° SE
SL-08 R/B 3.3 14:17:11 10° NNE 14:21:58 85° ESE 14:26:37 10° SSW
SL-16 R/B 4.5 14:20:11 10° NW 14:22:11 12° NNW 14:24:11 10° N
Cosmos 1092 Rocket 4.4 14:16:34 10° N 14:22:33 41° ENE 14:28:28 10° SE
CORIOLIS 4.4 14:18:10 10° SE 14:23:21 49° ENE 14:28:34 10° N
deb Kosmos-1763 4.0 14:20:12 10° SSW 14:23:37 80° WNW 14:27:03 10° NNE
COSMOS 2406 4.3 14:20:16 10° SSE 14:24:52 25° ESE 14:29:29 10° NE
USA 308 3.4 14:22:18 10° W 14:26:27 50° NNW 14:30:23 11° ENE
USA 229 DEB 3.9 14:20:06 10° NW 14:27:20 67° NE 14:35:02 10° SE
USA 229 3.9 14:20:11 10° NW 14:27:25 67° NE 14:35:07 10° SE
Cosmos 1763 Rocket 4.0 14:22:51 10° S 14:27:29 38° ESE 14:32:11 10° NE
Cosmos 1500 Rocket 3.7 14:25:02 10° N 14:29:24 51° ENE 14:33:41 10° SSE
Cosmos 1782 4.2 14:28:43 10° SE 14:31:33 19° E 14:34:21 10° NE
Cosmos 1602 4.5 14:28:43 10° N 14:32:09 30° ENE 14:35:34 10° SE
Cosmos 1937 Rocket 4.0 14:27:11 10° N 14:32:11 39° ENE 14:37:10 10° SE
NOAA 6 4.0 14:29:46 10° SSE 14:34:52 66° ENE 14:39:58 10° N
ATLAS 2AS CENTAUR R/B 4.1 14:28:17 10° W 14:35:06 32° NNW 14:41:39 10° NE
Cosmos 1833 Rocket 3.2 14:32:01 10° S 14:37:11 39° ESE 14:42:22 10° NE
Meteor PRIRODA 4.1 14:34:58 10° S 14:38:34 64° WSW 14:42:11 10° NNW
PAYLOAD B 4.5 14:34:20 10° SE 14:39:41 48° ENE 14:45:02 10° N
CZ-4C R/B 4.5 14:36:10 10° N 14:39:55 41° WNW 14:43:27 10° SW
ARGOS 4.0 14:36:09 10° ESE 14:40:43 28° ENE 14:45:16 10° N
Cosmos 1805 Rocket 3.9 14:36:38 10° N 14:40:44 39° ENE 14:44:49 10° SE
NOAA 12 4.3 14:35:39 10° S 14:40:59 77° WSW 14:46:21 10° NNW
Cosmos 1340 Rocket 2.8 14:37:01 10° N 14:41:07 78° E 14:45:11 10° SSE
Cosmos 990 Rocket 3.9 14:37:35 10° NNW 14:42:49 80° ENE 14:47:59 10° SSE
ERBS 3.1 14:40:29 10° W 14:43:31 38° NNW 14:45:53 15° NE
Sich 1 3.6 14:40:19 10° N 14:44:14 34° ENE 14:48:10 10° SE
Cosmos 1842 Rocket 3.7 14:40:28 10° S 14:44:55 85° W 14:49:26 10° N
Cosmos 2034 Rocket 3.9 14:38:56 10° S 14:45:04 77° E 14:51:15 10° NNE
AQUARIUS 4.1 14:43:28 10° SSE 14:47:56 73° ENE 14:52:27 10° N
Lacrosse 5 rocket 2.5 14:46:05 10° NW 14:49:19 25° N 14:51:19 17° NE
USA 234 3.6 14:43:29 10° SE 14:50:00 72° SW 14:56:33 10° WNW
CZ-4B R/B 3.8 14:46:01 10° S 14:50:02 52° W 14:53:52 10° NNW
Cosmos 2221 2.9 14:46:06 10° SSW 14:50:20 64° WNW 14:54:38 10° N
Meteor 1-20 Rocket 4.2 14:44:41 10° N 14:50:32 74° ENE 14:56:23 10° SSE
NOSS 3-1 (A) 4.1 14:43:28 10° NW 14:50:53 89° NE 14:59:38 10° SE
Cosmos 2360 4.2 14:45:24 10° NNW 14:51:08 64° ENE 14:56:48 10° SE
CZ-4B R/B 3.5 14:46:33 10° SE 14:51:36 41° ENE 14:56:36 10° N
CZ-2D R/B 3.4 14:49:06 10° SSE 14:52:48 49° ENE 14:56:31 10° N
USA 305 3.6 14:50:21 10° W 14:54:23 41° N 14:57:02 19° NE
Cosmos 1606 4.1 14:54:10 10° SW 14:57:43 39° WNW 15:01:18 10° N
NOSS 2-2 (D) 4.4 14:53:47 10° NW 14:58:36 53° NE 15:05:13 10° ESE
NOSS 2-2 (E) 4.3 14:54:24 10° NW 14:59:25 62° NE 15:06:28 10° SE
CZ-2C R/B 3.2 14:55:29 10° NNE 15:00:10 33° E 15:04:48 10° SSE
deb Chang Zheng 4 3.9 14:58:15 10° SE 15:02:17 40° ENE 15:06:20 10° N
Cosmos 858 Rocket 4.5 14:58:18 10° NNW 15:03:34 62° ENE 15:08:47 10° SE
Cosmos 1933 3.3 15:00:01 10° S 15:04:00 62° E 15:08:01 10° NNE
Cosmos 2084 3.8 15:02:40 10° NW 15:06:57 69° SW 15:11:23 10° SSE
Cosmos 1634 Rocket 4.1 15:01:41 10° SSE 15:07:50 57° E 15:14:00 10° NNE
GEOS 3 Rocket 4.0 15:03:59 15° ESE 15:07:58 43° NE 15:12:51 10° NNW
Meteor 2-21 4.4 15:04:18 10° N 15:10:24 66° ENE 15:16:24 10° SSE
Cosmos 1500 3.2 15:08:20 10° N 15:12:02 52° ENE 15:15:40 10° SSE
COSMO-SKYMED 1 3.1 15:09:39 20° NE 15:12:09 37° E 15:16:11 10° SSE
Cosmos 2360 Rocket 3.9 15:10:55 10° N 15:13:47 14° NNE 15:13:49 14° NNE
PSLV R/B 3.7 15:10:48 10° S 15:14:28 80° WSW 15:18:13 10° NNW
Cosmos 2026 Rocket 3.9 15:09:42 10° N 15:15:54 78° E 15:21:59 10° SSE
Cosmos 1818 4.4 15:11:24 10° NNW 15:16:18 32° NE 15:18:08 26° ENE
ATLAS CENTAUR R/B 2.8 15:07:46 10° SW 15:17:36 74° SE 15:20:00 28° ENE
Meteor 1-14 Rocket 4.4 15:12:48 10° N 15:18:28 51° ENE 15:24:11 10° SSE
Cosmos 2195 Rocket 4.5 15:12:38 10° N 15:18:49 86° W 15:25:02 10° S
MOS 1-B Rocket 4.0 15:14:44 10° NNE 15:20:29 64° ESE 15:26:58 10° S
USA 276 3.9 15:21:05 10° W 15:23:52 29° SSW 15:26:02 14° SSE
Cosmos 1633 Rocket 3.3 15:21:22 10° N 15:25:33 42° ENE 15:29:41 10° SSE
YAOGAN 1 3.9 15:27:55 23° NNE 15:27:55 23° NNE 15:30:05 10° N
USA 306 3.7 15:22:32 10° WNW 15:26:33 38° N 15:27:48 31° NE
Cosmos 540 Rocket 3.3 15:22:25 10° SSW 15:27:29 72° ESE 15:30:56 21° NNE
ISS -3.8 15:25:22 10° WNW 15:28:46 72° NNE 15:29:16 58° ENE
Okean O Rocket 1.5 15:26:31 10° SSE 15:30:55 65° ENE 15:35:21 10° N
Cosmos 1898 Rocket 4.2 15:25:55 10° NNW 15:31:04 56° WSW 15:36:09 10° S
Cosmos 468 Rocket 4.3 15:27:19 10° SSW 15:32:26 67° WNW 15:37:02 13° NNE
Cosmos 2322 Rocket 3.4 15:28:24 10° N 15:32:30 23° NE 15:32:30 23° NE
Meteor 2-14 Rocket 4.5 15:29:23 10° N 15:35:32 83° W 15:41:36 10° S
SKYMED 3 4.5 15:34:01 26° NNE 15:36:21 65° ESE 15:40:39 10° S
Cosmos 1697 Rocket 3.3 15:31:55 10° NW 15:37:26 58° WSW 15:42:54 10° S
Cosmos 2369 3.7 15:32:01 10° NNW 15:37:47 84° WSW 15:43:29 10° SSE
Meteor 1-5 Rocket 4.3 15:32:29 10° N 15:38:28 65° ENE 15:44:21 10° SSE
Cosmos 1980 Rocket 2.1 15:35:12 10° NNW 15:40:55 84° ENE 15:46:34 10° SSE
Cosmos 1666 3.3 15:38:11 10° N 15:46:21 - SSE 15:40:42 38° NNE
USA 307 3.6 15:40:24 10° WNW 15:44:26 39° N 15:44:56 37° NNE
H-2A R/B 2.6 15:40:13 10° S 15:45:21 59° W 15:50:22 10° NNW
Cosmos 1151 Rocket 2.9 15:42:46 10° S 15:47:03 65° E 15:47:49 53° NE
SL-16 R/B 2.9 15:44:14 10° NNW 15:48:55 34° NE 15:48:55 34° NE
Cosmos 1666 Rocket 3.4 15:45:00 10° N 15:49:29 87° E 15:53:54 10° S
Cosmos 44 Rocket 3.7 15:47:23 10° NNW 15:51:52 43° NNE 15:51:52 43° NNE
COSMOS 2455 2.7 15:47:59 10° SSW 15:53:59 76° ESE 15:56:22 39° NE
SL-08 RB Rocket 3.6 15:49:28 10° SSE 15:54:06 76° ENE 15:58:44 10° N
Cosmos 2082 Rocket 2.1 15:48:35 10° SSW 15:54:14 72° ESE 15:56:14 41° NE
CZ-4C R/B 2.9 15:47:09 10° NW 15:54:15 77° NE 16:00:06 22° SE
Cosmos 1812 2.6 15:51:19 10° S 15:55:10 89° ESE 15:55:10 89° ESE
Cosmos 2333 Rocket 4.1 15:52:07 10° N 15:53:58 14° NNE 15:53:58 14° NNE
NOSS 2-2 (C) 4.5 15:50:53 10° NW 15:56:01 76° SW 16:03:17 10° SSE
ATLAS CENTAUR R/B 3.9 15:54:57 10° NW 15:57:10 13° NNW 15:58:28 12° N
Cosmos 1328 Rocket 3.9 15:53:37 10° S 15:57:02 48° SSE 15:57:02 48° SSE
USA 267 3.7 15:55:22 31° NE 15:58:25 53° NNW 16:04:43 10° W
SL-24 R/B - RUBIN 2 3.8 15:55:22 10° NW 15:59:53 68° SW 16:01:26 38° SSE
SKYMED 2 3.7 15:58:15 30° N 16:00:19 73° WNW 16:04:38 10° SSW
Meteor 2-8 Rocket 4.3 15:54:57 10° S 16:01:01 66° E 16:05:38 18° NNE
Cosmos 2278 3.6 15:56:56 10° NNW 16:02:42 88° ENE 16:06:28 22° SSE
USA 308 3.8 16:02:54 10° WNW 16:06:24 37° NNW 16:06:24 37° NNW
Cosmos 1782 4.1 16:03:46 10° SW 16:07:32 40° WNW 16:09:58 19° NNW
COSMOS 2406 3.7 16:03:06 10° SW 16:08:46 60° WNW 16:11:51 27° NNE
Cosmos 841 Rocket 3.8 16:08:25 10° SW 16:13:32 63° WNW 16:15:32 36° N
Cosmos 1125 Rocket 4.4 16:09:00 10° NNW 16:12:19 35° N 16:12:19 35° N
Landsat 5 3.7 16:15:37 66° WSW 16:15:37 66° WSW 16:19:19 10° SSW
Meteor 2-6 Rocket 4.1 16:11:44 10° S 16:17:32 85° E 16:19:13 48° NNE
CZ-4 R/B 4.0 16:23:58 12° NNW 16:23:58 12° NNW 16:24:16 10° NNW
ARGOS 4.0 16:15:29 10° S 16:20:44 50° W 16:26:00 10° NNW
Cosmos 1833 Rocket 3.8 16:15:50 10° WSW 16:21:06 40° NW 16:24:08 23° N
ATLAS 2AS CENTAUR R/B 4.1 16:22:21 10° NW 16:28:26 25° N 16:29:29 24° NNE
Lacrosse 5 rocket 3.1 16:25:05 10° NW 16:26:55 26° NW 16:26:55 26° NW
Cosmos 2219 Rocket 4.3 16:25:34 10° N 16:26:36 13° N 16:26:36 13° N
Meteor 1-11 Rocket 4.3 16:25:18 10° N 16:29:04 44° N 16:29:04 44° N
Meteor 1-10 Rocket 4.4 16:25:42 10° S 16:30:33 63° S 16:30:33 63° S
CZ-2C R/B 3.8 16:36:38 15° N 16:40:32 39° WNW 16:45:17 10° SW
Cosmos 2266 Rocket 4.1 16:35:57 10° NNW 16:42:19 77° W 16:48:43 10° S
GEOS 3 Rocket 4.4 16:45:07 44° SSW 16:45:58 48° SW 16:51:01 10° NW
Cosmos 2360 Rocket 4.0 16:53:43 10° NNW 16:55:35 21° NNW 16:55:35 21° NNW
Cosmos 1818 4.5 16:54:50 10° NW 16:58:49 46° WNW 16:58:49 46° WNW
Okean O Rocket 4.5 17:05:02 10° SW 17:07:43 16° W 17:10:24 10° NW
Cosmos 2322 Rocket 3.9 17:11:55 10° NNW 17:14:20 26° NNW 17:14:20 26° NNW
SL-16 R/B 4.0 17:28:15 10° NW 17:30:49 26° NW 17:30:49 26° NW
Cosmos 2082 Rocket 4.1 17:34:13 10° W 17:38:07 25° WNW 17:38:07 25° WNW
USA 267 4.5 17:42:43 34° NW 17:42:43 34° NW 17:46:51 10° WNW
CZ-4C R/B 4.3 17:36:06 10° NW 17:42:37 33° WSW 17:45:25 27° SSW
